EHI
0 0 0 0 0 0 0 0 1 3 5 11 21 33 41 44 52 58 55 49 40 28 22 20 18 17 18 18 17 15 13 12 10 8 8 9 9 8 7 6 4 3 2 1
0 0 0 0 0 0 0 0 2 4 7 13 25 38 45 47 53 57 54 49 42 32 26 23 21 20 18 16 14 12 11 11 10 9 9 9 9 9 8 7 6 5 4 3
0 0 0 0 0 0 1 2 5 7 10 18 29 40 44 46 50 54 52 48 44 36 28 25 24 21 16 13 11 10 9 9 10 9 9 8 8 8 8 6 6 6 5 5
0 0 0 0 0 1 4 7 10 13 18 26 36 39 39 40 44 48 47 42 38 31 25 22 22 19 14 9 8 9 9 9 9 9 8 6 6 6 5 4 4 4 4 3
0 0 0 0 0 2 7 13 17 22 29 36 41 41 38 37 39 42 40 35 29 25 22 19 18 16 11 8 8 9 9 9 8 8 8 7 6 5 5 4 3 2 1 1
0 0 0 0 0 2 8 14 20 27 34 37 38 39 38 35 35 37 36 33 28 23 19 14 11 10 9 9 9 8 8 7 6 7 8 8 8 7 6 5 3 2 1 1
0 0 0 0 0 1 4 9 18 26 32 32 32 34 34 31 29 31 31 31 28 23 15 8 6 5 6 7 6 5 5 4 3 4 6 8 8 7 6 5 4 3 3 2
0 0 0 0 0 0 3 9 18 24 26 26 28 30 27 23 22 24 25 25 24 19 10 4 3 3 3 3 3 2 1 1 1 1 2 5 6 5 5 5 4 3 3 3
0 1 1 1 1 2 6 13 17 18 19 20 22 21 18 15 15 18 20 20 18 14 7 2 1 1 1 1 1 0 0 0 0 0 0 2 3 4 4 3 3 2 2 2
1 1 3 4 5 7 10 14 12 10 10 13 13 11 10 9 10 12 15 15 13 10 5 1 0 0 0 0 0 0 0 0 0 0 0 0 1 2 2 1 1 1 1 1
0 1 4 6 8 10 13 12 8 5 5 6 7 7 7 7 7 8 10 11 9 6 4 1 0 0 0 0 0 0 0 0 0 0 0 0 0 1 1 1 1 0 0 0
0 1 3 5 6 9 10 8 6 4 4 5 6 7 7 6 5 5 5 5 4 2 1 0 0 0 0 0 0 0 0 0 0 0 0 0 0 0 0 0 0 0 0 0
0 0 2 3 4 5 4 4 4 5 6 6 7 8 7 6 4 3 2 1 1 0 0 0 0 0 0 0 0 0 0 0 0 0 0 0 0 0 0 0 0 0 0 0
0 0 1 2 2 2 2 2 3 5 6 6 6 6 5 4 3 2 1 1 0 0 0 0 0 0 0 0 0 0 0 0 0 0 0 0 0 0 0 0 0 0 0 0
0 0 1 1 1 1 1 1 2 4 5 5 5 3 2 1 1 1 0 0 0 0 0 0 0 0 0 0 0 0 0 0 0 0 0 0 0 0 0 0 0 0 0 0
0 0 1 1 0 0 0 0 1 2 3 3 2 1 0 0 0 0 0 0 0 0 0 0 0 0 0 0 0 0 0 0 0 0 0 0 0 0 0 0 0 0 0 0
0 0 1 1 0 0 0 0 0 1 2 1 0 0 0 0 0 0 0 0 0 0 0 0 0 0 0 0 0 0 0 0 0 0 0 0 0 0 0 0 0 0 0 0
0 0 0 0 0 0 0 0 0 0 0 0 0 1 0 0 0 0 0 0 0 0 0 0 0 0 0 0 0 0 0 0 0 0 0 0 0 0 0 0 0 0 0 0
0 0 0 0 0 0 0 0 0 0 0 0 0 0 0 0 0 0 0 0 0 0 0 0 0 0 0 0 0 0 0 0 0 0 0 0 0 0 0 0 0 0 0 0
0 0 0 0 0 0 0 0 0 0 0 0 0 0 0 0 0 0 0 0 0 0 0 0 0 0 0 0 0 0 0 0 0 0 0 0 0 0 0 0 0 0 0 0
0 0 0 0 0 0 0 0 0 0 0 0 0 0 0 0 0 0 0 0 0 0 0 0 0 0 0 0 0 0 0 0 0 0 0 0 0 0 0 0 0 0 0 0
0 0 0 0 0 0 0 0 0 0 0 0 0 0 0 0 0 0 0 0 0 0 0 0 0 0 0 0 0 0 0 0 0 0 0 0 0 0 0 0 0 0 0 0
0 0 0 0 0 0 0 0 0 0 0 0 0 0 0 0 0 0 0 0 0 0 0 0 0 0 0 0 0 0 0 0 0 0 0 0 0 0 0 0 0 0 0 0
0 0 0 0 0 0 0 0 0 0 0 0 0 0 0 0 0 0 0 0 0 0 0 0 0 0 0 0 0 0 0 0 0 0 0 0 0 0 0 0 0 0 0 0
0 0 0 0 0 0 0 0 0 0 0 0 0 0 0 0 0 0 0 0 0 0 0 0 0 0 0 0 0 0 0 0 0 0 0 0 0 0 0 0 0 0 0 0
0 0 0 0 0 0 0 0 0 0 0 0 0 0 0 0 0 0 0 0 0 0 0 0 0 0 0 0 0 0 0 0 0 0 0 0 0 0 0 0 0 0 0 0
0 0 0 0 0 0 0 0 0 0 0 0 0 0 0 0 0 0 0 0 0 0 0 0 0 0 0 0 0 0 0 0 0 0 0 0 0 0 0 0 0 0 0 0
Wind_Speed
6 5 3 3 4 5 6 9 9 9 10 11 11 11 10 11 13 12 11 11 9 8 7 7 6 6 6 6 5 5 5 4 4 3 3 3 3 3 3 3 3 3 2 2
1 1 1 2 3 3 5 6 6 6 5 6 7 8 9 11 13 13 12 11 10 8 8 7 7 6 6 5 5 5 5 4 3 3 3 3 3 3 3 3 3 3 2 2
1 2 3 3 4 3 3 4 9 9 8 8 10 12 12 12 12 12 11 10 9 8 7 6 6 6 6 5 5 5 4 4 4 4 4 3 3 4 3 3 3 3 3 3
2 2 3 9 4 2 2 1 2 5 7 11 12 9 6 7 10 10 10 9 9 7 6 5 5 5 5 5 5 5 4 4 4 4 4 3 4 4 4 3 3 3 3 3
4 2 4 5 4 1 3 3 2 8 10 9 11 10 6 4 7 8 9 8 7 6 6 6 6 5 6 5 5 5 4 4 4 4 4 4 4 4 3 4 4 4 3 4
4 3 4 5 5 1 7 3 3 7 11 10 8 7 3 4 8 10 9 9 7 6 7 7 6 7 7 6 5 4 3 3 3 4 4 4 4 4 4 5 5 5 5 4
4 3 4 4 5 4 5 5 2 5 9 8 5 6 8 8 9 11 11 9 9 8 7 6 6 7 7 6 5 4 4 5 5 4 4 5 4 4 5 5 6 6 6 5
4 3 6 5 3 4 5 4 4 5 7 9 11 12 11 10 11 11 11 9 8 8 7 5 6 7 7 6 5 5 6 6 6 5 5 5 6 5 5 6 7 6 6 6
5 5 4 1 4 4 6 7 5 6 8 13 14 12 11 9 9 10 10 8 7 8 7 5 5 6 7 5 5 6 7 7 6 7 6 5 5 5 5 5 5 5 5 5
1 2 2 4 5 5 6 8 7 9 10 12 13 12 11 9 7 8 9 8 7 8 8 6 5 5 6 5 5 7 8 7 6 7 7 7 6 5 5 4 5 5 5 5
1 0 4 7 5 6 8 9 11 10 10 11 14 13 11 9 7 7 7 6 7 8 7 6 6 6 5 5 6 8 8 7 7 7 8 8 8 7 5 4 3 5 4 4
3 3 3 0 1 4 9 8 8 11 10 10 11 12 11 9 7 8 7 7 8 8 7 6 6 6 5 5 6 8 7 6 6 6 6 6 7 8 14 12 13 12 10 8
3 2 4 2 3 5 7 8 8 9 11 11 10 10 11 9 8 8 8 8 8 8 7 7 7 6 5 5 6 7 8 7 6 6 6 5 6 7 8 10 15 15 13 12
4 5 5 4 4 6 9 9 9 9 10 10 10 10 11 10 9 9 9 8 8 8 8 7 7 5 4 5 6 7 7 8 7 6 6 6 6 6 6 7 7 6 8 11
3 5 6 6 6 7 8 10 10 9 10 10 9 10 10 10 10 9 8 9 9 9 7 7 7 5 4 6 7 7 7 6 6 6 6 6 6 6 6 7 6 5 4 6
5 6 7 8 8 7 9 10 10 8 9 10 9 9 9 10 10 10 9 8 9 8 7 6 6 5 5 6 7 6 7 11 9 6 6 6 6 6 6 6 6 5 4 3
7 6 7 8 7 8 8 8 9 9 9 10 10 11 11 12 11 10 8 8 8 7 6 6 5 5 5 6 6 6 6 8 11 8 6 6 6 6 5 5 5 4 3 3
5 5 7 8 8 8 8 9 10 10 10 11 11 12 11 11 11 9 8 8 8 7 5 5 5 6 6 6 5 5 6 5 5 6 5 5 5 5 5 5 5 5 3 4
7 7 7 8 8 10 10 9 10 10 10 11 12 11 10 10 10 9 8 8 8 6 3 4 7 6 6 6 7 5 6 6 5 5 5 6 6 5 5 5 4 4 4 4
9 9 9 10 10 11 11 10 11 11 10 11 12 12 11 10 9 9 8 6 4 3 4 5 5 5 5 5 7 5 6 6 6 5 5 5 5 4 4 5 5 4 4 4
9 9 10 11 11 10 11 11 12 12 11 11 12 11 10 9 8 8 8 6 3 4 5 7 5 4 3 5 6 5 5 6 6 5 5 5 5 4 4 4 4 4 4 3
8 10 11 12 12 11 9 9 11 12 11 11 11 11 11 9 9 7 6 4 4 6 5 3 3 4 6 6 5 5 6 6 5 5 5 4 4 4 4 4 4 3 3 3
7 9 10 11 12 11 10 9 10 10 11 10 10 10 9 7 6 7 5 2 4 6 4 3 5 7 8 5 4 5 5 5 5 4 4 4 4 4 4 4 3 3 3 3
8 9 10 11 11 12 11 9 9 8 9 9 8 8 8 7 4 3 4 6 7 7 4 4 7 8 7 4 4 4 5 5 4 4 4 4 4 4 4 4 3 3 3 4
9 10 10 11 10 9 10 10 10 9 9 7 7 6 5 5 5 4 4 5 7 6 4 5 7 7 5 4 4 4 4 4 5 5 4 4 4 3 3 3 3 3 3 3
9 8 7 7 7 7 7 7 7 6 7 7 5 5 5 5 5 5 4 5 6 5 4 3 3 4 4 4 4 4 4 4 4 4 4 4 4 4 3 3 4 3 3 3
9 8 7 7 6 6 6 6 7 6 6 7 6 5 5 5 5 5 5 4 3 3 3 3 3 3 3 3 3 3 3 3 3 3 3 3 3 3 3 4 3 3 3 3
Wind_Direction
200 211 192 211 224 202 177 180 179 207 192 200 185 166 157 147 144 147 149 148 151 153 154 153 155 156 159 163 166 164 160 161 167 169 164 149 143 146 148 153 163 158 147 142
274 307 360 290 272 239 211 184 174 164 203 200 158 141 140 145 149 153 155 156 157 152 147 151 155 154 151 154 158 147 149 158 157 145 136 136 145 145 142 144 140 129 127 134
261 321 33 290 257 245 234 200 167 181 200 157 143 152 158 155 154 157 154 149 148 147 149 148 149 148 148 150 140 137 144 146 143 143 144 152 154 142 141 142 131 129 136 131
128 64 227 245 255 197 145 14 149 142 150 152 148 141 135 142 144 139 136 138 137 141 137 128 123 127 133 128 128 136 141 141 141 142 146 146 141 142 141 131 126 120 117 117
114 158 268 300 328 51 107 15 30 128 131 125 119 91 66 90 119 128 127 122 123 128 121 112 110 113 113 111 113 116 124 132 139 140 137 136 137 140 138 125 113 103 102 101
122 145 216 258 296 322 95 45 346 122 133 135 119 117 165 140 115 111 107 110 110 106 102 101 99 100 99 97 99 101 106 112 115 128 135 136 136 131 117 112 112 107 90 82
151 182 249 269 307 37 110 198 229 133 135 130 119 139 137 120 106 107 107 106 106 101 98 102 105 103 100 96 91 90 88 88 85 90 105 112 111 108 110 111 109 103 94 77
149 176 244 303 40 113 181 167 135 112 108 106 107 107 109 109 106 103 102 99 102 102 94 88 99 109 106 100 96 90 87 85 81 78 85 94 101 101 101 108 106 101 93 79
183 202 240 293 125 145 139 124 123 122 120 119 113 113 109 105 106 103 101 99 100 102 95 81 79 99 106 100 101 99 93 88 84 79 75 77 90 101 100 99 104 104 99 89
60 22 26 59 75 77 100 109 111 118 120 117 116 113 108 107 106 104 104 107 106 104 101 89 78 85 99 104 104 104 100 92 85 82 75 67 63 68 86 93 102 104 103 99
64 7 41 28 50 90 91 93 101 107 115 121 121 120 119 117 112 106 107 110 108 108 107 100 92 90 94 100 104 101 97 95 89 84 84 75 66 53 62 57 95 114 111 114
202 220 137 209 7 96 101 101 114 120 116 118 121 122 121 117 114 112 109 108 107 106 106 104 99 95 89 94 108 112 106 100 97 96 93 94 93 75 54 66 70 76 88 97
170 147 129 113 73 80 94 95 102 116 123 118 113 116 116 114 108 107 106 106 106 106 106 106 104 101 96 98 107 112 115 113 108 107 105 103 102 103 94 67 62 65 73 83
120 107 91 80 87 92 98 91 92 99 106 111 113 112 111 109 107 107 107 105 104 102 99 98 97 95 97 102 105 109 111 113 114 111 108 104 101 100 102 105 93 66 54 69
112 120 131 115 100 98 105 106 106 108 109 106 110 114 116 114 112 108 106 106 102 98 96 97 95 90 91 102 106 109 111 114 112 110 107 107 105 102 100 99 99 96 81 63
121 117 121 119 121 122 120 121 123 123 122 119 118 117 114 112 110 106 102 104 106 105 104 102 100 101 99 104 107 107 109 116 114 113 111 110 108 105 103 103 101 99 96 93
134 137 136 134 131 130 131 135 136 133 128 124 123 121 117 113 108 104 100 98 101 101 102 106 109 104 99 103 108 113 115 118 116 113 111 113 113 112 112 109 108 104 97 99
147 146 144 140 136 129 127 131 129 128 129 126 123 120 120 118 117 116 114 108 101 92 90 102 107 104 103 104 106 111 111 110 111 114 114 115 118 121 121 119 120 117 101 88
123 118 117 121 124 122 121 124 126 124 126 126 123 120 117 117 118 118 115 108 108 106 103 111 113 105 103 105 107 106 111 112 109 109 112 119 115 114 118 119 119 120 117 105
113 112 113 114 113 117 119 120 119 120 124 124 120 117 116 117 118 115 107 99 102 122 122 109 102 97 102 109 112 112 114 117 117 116 112 113 118 121 125 127 127 128 125 123
115 117 118 118 114 113 119 124 124 125 126 125 125 125 123 120 117 114 112 105 93 105 107 105 101 102 107 116 114 112 113 115 115 117 118 119 119 121 124 127 130 133 136 136
116 119 120 120 117 114 114 115 119 121 121 120 121 121 119 116 112 104 99 115 122 113 105 100 101 102 110 111 107 109 113 116 117 119 120 122 125 126 125 127 127 129 133 138
116 118 119 120 119 117 112 113 117 120 122 124 125 125 124 124 125 126 121 123 120 112 107 102 107 104 103 100 103 107 116 119 121 126 129 127 127 130 131 132 133 134 137 139
121 118 117 117 116 117 118 118 114 114 115 114 117 121 123 121 111 109 125 130 126 118 108 106 102 101 100 100 103 107 113 115 118 121 124 123 124 126 131 135 137 143 148 151
122 120 121 121 121 122 122 119 112 111 111 111 112 113 114 122 128 129 123 125 124 116 109 106 103 100 97 101 106 113 121 128 130 129 127 129 135 138 139 142 147 148 153 162
113 115 116 118 120 120 120 118 118 120 120 116 112 112 109 106 110 111 109 114 115 115 111 107 104 98 101 104 105 110 119 129 129 129 137 140 145 149 153 157 156 158 163 169
104 106 108 106 105 111 115 118 121 123 126 126 123 123 119 115 113 113 111 107 105 108 109 107 106 108 113 116 115 117 120 124 128 134 142 144 146 152 164 167 167 165 164 165